Showing default

COSMOS 1693, 16141

Orbit data source: Space-Track

COSMOS 1693, 16141 is a payload satellite owned by GUKOS (CIS) in LEO that was launched on Wed, 09 Oct 1985 UTC via a TSIKLON-3 launch vehicle from the Plesetsk Missile And Space Complex (PKMTR). Payload-class satellites include a variety of spacecraft equipped with specific instruments for various scientific and technological missions. These include communications satellites like Starlink; space stations such as the ISS; scientific satellites like the Hubble; Earth observation satellites from companies like Planet Labs, Umbra, and HawkEye 360; GPS; miniature CubeSats for education and research; and military/defense satellites.

Loading next visibility...
Identifier
16141, 1985-094D
Orbit
LEO
Country
Flag of CISCIS
Related business
Manufacturer
NPO PM
Mission
Spacecraft
Bus & Motor
STRELA-3, Unknown motor
Mass
225 kg wet, 225 kg dry
Launch date (UTC)
1985-10-09 (40 years ago)
Launch vehicle
TSIKLON-3
Launch site
Plesetsk Missile And Space Complex (PKMTR)
Object type
Payload
Rocket body
Debris
Shape & HBR
Unknown
Radar Cross Section
Medium (>0.1 m² and <1 m²)

Expand to show TLE details & history
Last TLE update: 11 hours ago

TLE from 11 hours ago
0 COSMOS 1693
1 16141U 85094D   26037.27858669  .00000028  00000-0  96495-4 0  9995
2 16141  82.6153 335.9303 0014413 337.4666 177.9345 12.64358308860992
Epoch: 2026-02-06T06:41Z
TLE epoch observation values (Epoch: 2026-02-06T06:41:09.890Z)
Latitude
24.39907°
Longitude
-84.13333°
Altitude
1,419.027 km
Speed
7.148 km/s
True Right ascension
10h 10m 18s
True Declination
24° 16' 51"
Sunlit
Object was in full shadow at epoch
Visualization orbit readout
Latitude
Unknown
Longitude
Unknown
Altitude
Unknown
Speed
Unknown
Apparent Right ascension
Unknown
Apparent Declination
Unknown
Sunlit
N/A
Visualization observer readout
Local Sidereal Time
20:01:47
Azimuth
Unknown
Elevation
Unknown
Doppler factor
Unknown
Orbital elements
Apogee altitude
1,413.537 km
Perigee altitude
1,391.109 km
Semi-major axis
7,780.46 km
Eccentricity
0.00144
Inclination
82.6153°
RAAN
335.9303°
Arg. of periapsis
337.4666°
True anomaly
177.94044°
Mean anomaly
177.9345°
Eccentric anomaly
177.93747°
Mean motion
3.16253 °/min
Orbital period
113.83 mins
BSTAR
0.000096495
Loading maneuver chart data...
Computing Atmospheric mass density...
Loading historical data...
Loading historical data...
Loading historical data...
Loading historical data...
Loading historical data...
Loading historical data...
Loading historical data...

Documentation

Showing up to 5 results
|